1508518800.41,47270,18.19,74014.3,-0.09,-33.37,-35.01,0,*5C
1508518801.66,47271,18.19,74014.3,-0.09,-33.49,-35.29,0,*5E
1508518802.91,47272,18.19,74016.8,-0.07,-33.31,-34.95,0,*5A
1508518804.17,47273,18.19,74018.5,-0.09,-33.37,-34.95,0,*53
1508518805.41,47274,18.19,74018.5,-0.09,-33.15,-34.95,0,*54
1508518806.63,47275,18.19,74020.3,-0.11,-33.21,-34.83,0,*6C
1508518807.88,47276,18.19,74018.5,-0.09,-32.97,-34.77,0,*51
1508518809.13,47277,18.19,74018.8,-0.09,-33.21,-34.95,0,*50
1508518810.38,47278,18.19,74016.0,-0.09,-33.15,-34.95,0,*58
1508518811.6,47279,18.19,74020.3,-0.11,-33.31,-35.13,0,*69
1508518812.83,47280,18.19,74018.8,-0.09,-33.21,-35.13,0,*57
1508518814.08,47281,18.13,74016.0,-0.09,-33.31,-35.13,0,*57
1508518815.33,47282,18.19,74020.0,-0.09,-33.31,-35.13,0,*54
1508518816.56,47283,18.19,74020.3,-0.11,-33.31,-35.13,0,*6C
1508518817.81,47284,18.19,74020.5,-0.09,-33.31,-35.13,0,*52
1508518819.05,47285,18.19,74020.8,-0.09,-33.31,-35.17,0,*57
1508518820.31,47286,18.19,74018.3,-0.09,-33.49,-35.29,0,*56
1508518821.53,47287,18.19,74018.8,-0.09,-33.21,-35.17,0,*54
1508518822.73,47288,18.19,74018.5,-0.07,-32.69,-34.59,0,*53
1508518823.98,47289,18.19,74020.0,-0.07,-32.75,-34.53,0,*55
1508518825.2,47290,18.19,74020.5,-0.07,-32.85,-34.71,0,*52
1508518826.47,47291,18.19,74018.8,-0.05,-32.97,-34.83,0,*5F
1508518827.66,47292,18.19,74018.8,-0.07,-33.03,-34.89,0,*58
1508518828.88,47293,18.19,74016.8,-0.07,-33.15,-34.95,0,*53
1508518830.1,47294,18.19,74018.3,-0.07,-33.15,-34.95,0,*54
1508518831.32,47295,18.19,74020.0,-0.05,-33.21,-34.89,0,*5D
1508518832.51,47296,18.19,74020.0,-0.07,-33.37,-35.17,0,*5D
1508518833.76,47297,18.19,74020.0,-0.07,-33.61,-35.41,0,*5C
1508518834.98,47298,18.19,74020.3,-0.07,-33.77,-35.47,0,*52
1508518836.23,47299,18.19,74020.5,-0.07,-33.77,-35.41,0,*55
1508518837.47,47300,18.19,74018.5,-0.07,-33.61,-35.23,0,*57
1508518838.69,47301,18.19,74022.0,-0.07,-33.61,-35.29,0,*5C
1508518839.89,47302,18.19,74020.5,-0.07,-33.67,-35.29,0,*59
1508518841.13,47303,18.19,74016.5,-0.07,-33.61,-35.23,0,*54
1508518842.38,47304,18.19,74016.3,-0.07,-33.31,-34.95,0,*5A
1508518843.63,47305,18.19,74022.3,-0.09,-33.31,-35.01,0,*59
1508518844.86,47306,18.19,74020.8,-0.09,-33.37,-35.01,0,*5C
1508518846.09,47307,18.19,74020.5,-0.11,-33.31,-35.01,0,*62
1508518847.34,47308,18.19,74018.5,-0.09,-33.31,-35.13,0,*57
1508518848.57,47309,18.19,74018.5,-0.09,-33.37,-35.13,0,*50
1508518849.82,47310,18.19,74016.8,-0.07,-33.31,-35.07,0,*55
1508518851.07,47311,18.19,74022.0,-0.09,-33.49,-35.13,0,*50
1508518852.3,47312,18.19,74018.3,-0.07,-33.49,-35.13,0,*5D
1508518853.55,47313,18.19,74018.3,-0.09,-33.67,-35.35,0,*5A
1508518854.77,47314,18.19,74020.3,-0.07,-33.61,-35.29,0,*58
1508518856.01,47315,18.19,74020.3,-0.07,-33.61,-35.23,0,*53
1508518857.25,47316,18.19,74018.5,-0.07,-33.49,-35.23,0,*5A
1508518858.45,47317,18.19,74020.3,-0.11,-33.55,-35.17,0,*66
1508518859.68,47318,18.19,74022.0,-0.09,-33.55,-35.29,0,*5D
1508518860.9,47319,18.19,74022.5,-0.09,-33.37,-35.17,0,*55
1508518862.15,47320,18.19,74018.8,-0.09,-33.49,-35.17,0,*56
1508518863.4,47321,18.19,74020.3,-0.09,-33.49,-35.17,0,*57
1508518864.65,47322,18.19,74020.0,-0.09,-33.31,-35.01,0,*5C
1508518865.9,47323,18.19,74020.8,-0.11,-33.31,-34.95,0,*68
1508518867.15,47324,18.19,74022.0,-0.09,-33.21,-34.83,0,*50
1508518868.4,47325,18.19,74026.0,-0.09,-33.31,-35.01,0,*5B
1508518869.63,47326,18.19,74020.5,-0.09,-33.37,-35.13,0,*5D
1508518870.86,47327,18.19,74024.0,-0.09,-33.37,-35.01,0,*5F
1508518872.1,47328,18.13,74020.3,-0.09,-33.15,-34.83,0,*5B
1508518873.29,47329,18.19,74022.5,-0.07,-32.91,-34.59,0,*5E
1508518874.48,47330,18.19,74020.8,-0.07,-33.03,-34.59,0,*5C
1508518875.73,47331,18.19,74022.8,-0.09,-33.15,-34.65,0,*5B
1508518876.96,47332,18.13,74018.5,-0.07,-33.21,-34.95,0,*5E
1508518878.21,47333,18.19,74022.0,-0.09,-33.31,-35.01,0,*5C
1508518879.49,47334,18.19,74020.5,-0.09,-33.31,-34.95,0,*57
1508518880.74,47335,18.19,74020.3,-0.09,-33.49,-35.17,0,*52
1508518881.95,47336,18.19,74024.3,-0.09,-33.55,-35.17,0,*5C
1508518883.22,47337,18.19,74020.0,-0.09,-33.31,-34.83,0,*53
1508518884.48,47338,18.19,74022.8,-0.09,-33.49,-35.13,0,*5B
1508518885.71,47339,18.19,74020.8,-0.09,-33.67,-35.47,0,*57
1508518886.95,47340,18.19,74020.5,-0.09,-33.67,-35.35,0,*5C
1508518888.18,47341,18.19,74022.8,-0.07,-33.49,-35.13,0,*5B
1508518889.41,47342,18.19,74022.5,-0.11,-33.31,-35.13,0,*60
1508518890.65,47343,18.19,74020.8,-0.11,-33.31,-34.83,0,*69
1508518891.9,47344,18.19,74022.5,-0.09,-33.31,-35.13,0,*5F
1508518893.13,47345,18.19,74018.8,-0.09,-33.55,-35.13,0,*5C
1508518894.38,47346,18.19,74022.5,-0.09,-33.49,-35.13,0,*52
1508518895.61,47347,18.19,74020.8,-0.09,-33.37,-35.13,0,*5A
1508518896.81,47348,18.19,74020.3,-0.11,-33.67,-35.29,0,*60
1508518898.07,47349,18.19,74022.5,-0.09,-33.73,-35.17,0,*50
1508518899.3,47350,18.19,74020.0,-0.09,-33.37,-35.13,0,*5C
1508518900.52,47351,18.13,74022.3,-0.11,-33.21,-34.83,0,*6B
1508518901.74,47352,18.19,74026.0,-0.11,-33.09,-34.59,0,*65
1508518902.99,47353,18.19,74020.3,-0.09,-33.15,-34.95,0,*50
1508518904.24,47354,18.19,74018.8,-0.11,-33.31,-34.95,0,*68
1508518905.47,47355,18.19,74018.3,-0.09,-33.67,-35.29,0,*55
1508518906.7,47356,18.19,74018.3,-0.11,-33.73,-35.29,0,*6A
1508518907.93,47357,18.19,74022.5,-0.09,-33.67,-35.17,0,*5A
1508518909.15,47358,18.13,74016.0,-0.09,-33.37,-35.17,0,*50
1508518910.38,47359,18.19,74020.0,-0.11,-33.49,-35.17,0,*61
1508518911.58,47360,18.19,74016.0,-0.11,-33.37,-35.13,0,*66
1508518912.81,47361,18.19,74016.5,-0.11,-33.37,-34.83,0,*6F
1508518914.01,47362,18.19,74016.8,-0.11,-33.67,-35.17,0,*65
1508518915.21,47363,18.19,74016.8,-0.11,-33.37,-35.13,0,*65
1508518916.43,47364,18.19,74018.8,-0.11,-33.37,-34.83,0,*6A
1508518917.68,47365,18.13,74014.5,-0.09,-33.37,-34.83,0,*52
1508518918.91,47366,18.19,74018.3,-0.11,-33.37,-34.65,0,*60
1508518920.13,47367,18.19,74018.3,-0.11,-33.09,-34.25,0,*68
1508518921.38,47368,18.19,74018.0,-0.09,-32.97,-34.47,0,*5C
1508518922.63,47369,18.19,74014.0,-0.11,-33.31,-34.95,0,*66
1508518923.83,47370,18.19,74022.3,-0.11,-33.55,-35.13,0,*63
1508518925.08,47371,18.19,74018.0,-0.09,-33.49,-35.13,0,*56
1508518926.31,47372,18.19,74018.3,-0.11,-33.49,-35.13,0,*6C
1508518927.54,47373,18.19,74016.3,-0.09,-33.55,-35.13,0,*59
1508518928.74,47374,18.19,74014.3,-0.11,-33.67,-35.13,0,*66
1508518929.97,47375,18.19,74014.0,-0.09,-33.67,-35.13,0,*5E
1508518931.17,47376,18.13,74012.3,-0.11,-33.37,-35.01,0,*62
1508518932.4,47377,18.19,74016.0,-0.11,-33.49,-35.13,0,*69
1508518933.63,47378,18.19,74018.3,-0.11,-33.49,-35.13,0,*66
1508518934.83,47379,18.19,74012.5,-0.11,-33.55,-35.17,0,*6E
1508518936.06,47380,18.19,74014.3,-0.11,-33.49,-35.13,0,*61
1508518937.28,47381,18.19,74012.8,-0.11,-33.21,-34.83,0,*66
1508518938.48,47382,18.19,74012.0,-0.11,-33.37,-35.13,0,*6A
1508518939.71,47383,18.13,74010.0,-0.11,-33.49,-35.13,0,*62
1508518940.91,47384,18.19,74014.0,-0.11,-33.21,-34.77,0,*68
1508518942.17,47385,18.19,74012.0,-0.13,-33.43,-35.01,0,*6F
1508518943.4,47386,18.13,74010.5,-0.11,-33.49,-35.13,0,*67
1508518944.65,47387,18.19,74010.8,-0.11,-33.31,-34.95,0,*66
1508518945.91,47388,18.13,74012.3,-0.13,-33.37,-35.07,0,*67
1508518947.15,47389,18.19,74012.0,-0.13,-33.27,-34.89,0,*60
1508518948.39,47390,18.19,74012.0,-0.13,-33.37,-35.17,0,*6F
1508518949.66,47391,18.19,74014.5,-0.13,-33.43,-35.07,0,*6C
1508518950.92,47392,18.13,74010.8,-0.13,-33.27,-35.01,0,*6B
1508518952.15,47393,18.13,74012.3,-0.11,-33.21,-34.95,0,*62
1508518953.37,47394,18.19,74014.0,-0.11,-33.21,-34.83,0,*62
1508518954.58,47395,18.19,74014.0,-0.11,-33.15,-34.83,0,*64
1508518955.8,47396,18.13,74014.3,-0.11,-33.15,-34.95,0,*60
1508518957.03,47397,18.13,74012.8,-0.11,-33.31,-35.01,0,*6B
1508518958.26,47398,18.19,74014.8,-0.13,-33.15,-34.89,0,*61
1508518959.53,47399,18.19,74014.3,-0.13,-33.27,-35.07,0,*66
1508518960.73,47400,18.13,74012.0,-0.11,-33.37,-35.17,0,*63
1508518961.99,47401,18.19,74012.8,-0.13,-33.43,-35.17,0,*63
1508518963.21,47402,18.13,74012.8,-0.13,-33.55,-35.17,0,*67
1508518964.41,47403,18.13,74014.0,-0.11,-33.37,-35.17,0,*60
1508518965.64,47404,18.19,74016.0,-0.11,-33.49,-35.29,0,*63
1508518966.87,47405,18.19,74016.3,-0.15,-33.55,-35.35,0,*66
1508518968.15,47406,18.19,74018.0,-0.13,-33.73,-35.41,0,*64
1508518969.44,47407,18.13,74012.3,-0.13,-33.73,-35.35,0,*66
1508518970.69,47408,18.19,74018.8,-0.13,-33.55,-35.23,0,*6A
1508518971.96,47409,18.19,74016.8,-0.13,-33.43,-35.23,0,*6C
1508518973.22,47410,18.13,74016.0,-0.13,-33.37,-35.07,0,*61
1508518974.42,47411,18.13,74016.8,-0.15,-33.37,-35.17,0,*67
1508518975.65,47412,18.13,74014.0,-0.13,-33.55,-35.17,0,*66
1508518976.9,47413,18.13,74010.0,-0.15,-33.43,-35.07,0,*67
1508518978.14,47414,18.19,74018.5,-0.13,-33.37,-35.01,0,*63
1508518979.36,47415,18.19,74014.5,-0.15,-33.43,-35.17,0,*60
1508518980.64,47416,18.13,74014.3,-0.13,-33.73,-35.23,0,*61
1508518981.89,47417,18.13,74014.5,-0.15,-33.61,-35.23,0,*65
1508518983.14,47418,18.19,74018.5,-0.15,-33.73,-35.23,0,*69
1508518984.39,47419,18.13,74014.8,-0.15,-33.77,-35.23,0,*6C
1508518985.67,47420,18.19,74016.8,-0.13,-33.73,-35.23,0,*64
1508518986.89,47421,18.19,74018.3,-0.15,-33.61,-35.17,0,*67
1508518988.14,47422,18.13,74014.8,-0.15,-33.43,-35.07,0,*65
1508518989.35,47423,18.13,74012.8,-0.15,-33.55,-35.01,0,*65
1508518990.55,47424,18.13,74012.5,-0.15,-33.55,-35.01,0,*62
1508518991.78,47425,18.19,74016.8,-0.15,-33.55,-35.07,0,*65
1508518993.0,47426,18.19,74016.5,-0.15,-33.43,-34.89,0,*66
1508518994.2,47427,18.13,74012.3,-0.15,-33.37,-34.89,0,*64
1508518995.43,47428,18.19,74012.5,-0.15,-33.27,-34.71,0,*6D
1508518996.67,47429,18.19,74018.5,-0.15,-33.43,-34.83,0,*63
1508518997.93,47430,18.13,74012.5,-0.17,-33.09,-34.59,0,*60
1508518999.16,47431,18.19,74014.5,-0.15,-33.21,-34.65,0,*66
1508519000.38,47432,18.19,74012.8,-0.15,-33.03,-34.31,0,*64
1508519001.63,47433,18.13,74008.5,-0.15,-32.97,-34.31,0,*69
1508519002.85,47434,18.13,74008.8,-0.15,-33.03,-34.53,0,*66
1508519004.11,47435,18.13,74010.5,-0.13,-33.15,-34.65,0,*63
1508519005.33,47436,18.19,74012.0,-0.15,-33.15,-34.53,0,*63
1508519006.56,47437,18.19,74010.5,-0.15,-33.15,-34.65,0,*67
1508519007.79,47438,18.13,74006.5,-0.13,-33.37,-34.89,0,*6C
1508519009.02,47439,18.13,74008.5,-0.15,-33.21,-34.65,0,*6E
1508519010.22,47440,18.19,74010.3,-0.15,-33.21,-34.71,0,*65
1508519011.42,47441,18.13,74008.3,-0.15,-33.15,-34.71,0,*63
1508519012.64,47442,18.13,74010.8,-0.15,-33.21,-34.83,0,*6A
1508519013.87,47443,18.19,74012.0,-0.13,-33.15,-34.71,0,*67
1508519015.09,47444,18.13,74008.0,-0.15,-33.21,-34.83,0,*6C
1508519016.29,47445,18.13,74008.3,-0.15,-33.15,-34.71,0,*67
1508519017.57,47446,18.19,74010.0,-0.13,-32.97,-34.53,0,*69
1508519018.76,47447,18.13,74008.5,-0.15,-33.15,-34.89,0,*62
1508519019.99,47448,18.13,74008.0,-0.13,-33.03,-34.71,0,*6B
1508519021.19,47449,18.13,74008.0,-0.15,-33.21,-34.89,0,*6B
1508519022.42,47450,18.19,74010.8,-0.15,-33.37,-35.07,0,*63
1508519023.66,47451,18.13,74004.0,-0.13,-33.15,-34.83,0,*69
1508519024.86,47452,18.19,74012.0,-0.15,-33.21,-34.89,0,*61
1508519026.11,47453,18.13,74010.5,-0.15,-32.97,-34.83,0,*66
1508519027.39,47454,18.13,74008.8,-0.13,-32.85,-34.65,0,*6C
1508519028.65,47455,18.13,74010.5,-0.15,-32.79,-34.53,0,*6D
1508519029.87,47456,18.19,74008.5,-0.13,-33.15,-34.89,0,*64
1508519031.1,47457,18.13,74010.3,-0.13,-33.15,-34.71,0,*62
1508519032.3,47458,18.13,74014.0,-0.15,-32.51,-34.13,0,*6E
1508519033.57,47459,18.13,74012.5,-0.13,-32.63,-34.31,0,*68
1508519034.82,47460,18.13,74012.3,-0.13,-32.29,-34.07,0,*69
1508519036.07,47461,18.13,74014.8,-0.13,-32.19,-33.95,0,*67
1508519037.35,47462,18.13,74012.0,-0.13,-31.95,-33.77,0,*6F
1508519038.57,47463,18.13,74014.8,-0.11,-32.07,-33.83,0,*6F
1508519039.82,47464,18.13,74012.8,-0.09,-32.13,-34.01,0,*59
1508519041.07,47465,18.13,74014.0,-0.09,-32.63,-34.47,0,*5D
1508519042.34,47466,18.13,74018.3,-0.09,-32.97,-34.95,0,*5A
1508519043.63,47467,18.13,74016.5,-0.09,-32.75,-34.65,0,*58
1508519044.88,47468,18.13,74016.5,-0.07,-32.75,-34.53,0,*5C
1508519046.15,47469,18.13,74016.3,-0.09,-33.09,-34.95,0,*53
1508519047.43,47470,18.13,74018.5,-0.09,-33.09,-34.95,0,*5B
1508519048.65,47471,18.13,74016.0,-0.09,-33.15,-35.01,0,*5B
1508519049.87,47472,18.13,74016.8,-0.09,-33.15,-35.01,0,*58
1508519051.07,47473,18.13,74016.3,-0.07,-32.91,-34.77,0,*5A
1508519052.29,47474,18.13,74016.8,-0.07,-32.85,-34.71,0,*5E
1508519053.52,47475,18.19,74018.3,-0.07,-32.69,-34.53,0,*5D
1508519054.71,47476,18.13,74012.8,-0.07,-32.69,-34.41,0,*5D
1508519055.96,47477,18.19,74016.5,-0.05,-32.51,-34.53,0,*56
1508519057.23,47478,18.19,74016.3,-0.05,-32.79,-34.65,0,*56
1508519058.47,47479,18.13,74012.3,-0.05,-32.97,-34.89,0,*55
1508519059.71,47480,18.13,74012.3,-0.07,-33.27,-35.07,0,*5C
1508519060.96,47481,18.13,74012.0,-0.07,-33.27,-35.07,0,*5D
1508519062.18,47482,18.13,74012.5,-0.05,-33.21,-35.01,0,*5C
1508519063.43,47483,18.13,74014.8,-0.07,-33.31,-35.07,0,*58
1508519064.67,47484,18.13,74016.0,-0.07,-33.31,-35.07,0,*5F
1508519065.9,47485,18.13,74014.3,-0.07,-33.31,-35.13,0,*5B
1508519067.14,47486,18.13,74012.0,-0.05,-33.43,-35.17,0,*5B
1508519068.36,47487,18.13,74012.0,-0.07,-33.43,-35.13,0,*5C
1508519069.6,47488,18.19,74016.3,-0.05,-33.09,-34.89,0,*5D
1508519070.85,47489,18.13,74012.3,-0.07,-32.85,-34.53,0,*5C
1508519072.07,47490,18.19,74018.0,-0.07,-33.15,-34.95,0,*56
1508519073.32,47491,18.13,74014.8,-0.09,-33.31,-35.17,0,*54
1508519074.54,47492,18.13,74016.5,-0.07,-33.43,-35.13,0,*58
1508519075.76,47493,18.13,74014.3,-0.07,-33.31,-35.13,0,*5C
1508519077.03,47494,18.13,74016.3,-0.05,-33.27,-35.07,0,*5B
1508519078.26,47495,18.13,74014.0,-0.07,-33.43,-35.29,0,*56
1508519079.48,47496,18.13,74018.3,-0.07,-33.31,-35.13,0,*59
1508519080.73,47497,18.13,74018.5,-0.07,-33.31,-35.07,0,*5D
1508519081.95,47498,18.13,74016.3,-0.07,-33.49,-35.13,0,*58
1508519083.17,47499,18.13,74018.3,-0.07,-33.31,-35.13,0,*56
1508519084.4,47500,18.13,74014.5,-0.09,-33.37,-35.17,0,*5B
1508519085.63,47501,18.13,74012.8,-0.07,-33.49,-35.29,0,*50
1508519086.87,47502,18.19,74016.8,-0.07,-33.49,-35.23,0,*59
1508519088.12,47503,18.13,74014.5,-0.07,-33.27,-35.07,0,*56
1508519089.31,47504,18.13,74018.8,-0.07,-33.03,-34.77,0,*51
1508519090.51,47505,18.13,74014.8,-0.07,-33.03,-34.71,0,*56
1508519091.73,47506,18.13,74012.3,-0.07,-32.75,-34.59,0,*5F
1508519092.95,47507,18.13,74014.3,-0.07,-33.09,-34.89,0,*59
1508519094.17,47508,18.13,74008.8,-0.07,-33.09,-34.89,0,*56
1508519095.36,47509,18.13,74012.0,-0.07,-33.03,-34.71,0,*5A
1508519096.58,47510,18.13,74008.3,-0.07,-32.85,-34.59,0,*57
1508519097.8,47511,18.13,74010.8,-0.05,-33.03,-34.71,0,*51
1508519099.02,47512,18.13,74012.0,-0.05,-33.03,-34.71,0,*52
1508519100.24,47513,18.13,74012.3,-0.07,-32.91,-34.53,0,*5B
1508519101.46,47514,18.13,74014.3,-0.07,-32.75,-34.25,0,*57
1508519102.7,47515,18.13,74014.8,-0.07,-32.75,-34.19,0,*59
1508519103.89,47516,18.13,74014.3,-0.07,-32.91,-34.47,0,*5B
1508519105.14,47517,18.13,74014.3,-0.05,-33.09,-34.71,0,*5D
1508519106.36,47518,18.13,74014.5,-0.05,-33.21,-34.89,0,*5F
1508519107.62,47519,18.13,74010.3,-0.05,-32.97,-34.53,0,*55
1508519108.87,47520,18.13,74012.0,-0.03,-32.63,-34.53,0,*52
1508519110.14,47521,18.13,74012.0,-0.05,-32.85,-34.53,0,*5D
1508519111.41,47522,18.13,74010.0,-0.05,-32.79,-34.53,0,*5D
1508519112.65,47523,18.13,74008.5,-0.01,-33.15,-34.83,0,*5E
1508519113.87,47524,18.13,74010.8,-0.03,-33.37,-35.07,0,*56
1508519115.11,47525,18.13,74012.5,-0.03,-33.43,-35.07,0,*54
1508519116.33,47526,18.13,74012.0,-0.03,-33.27,-35.01,0,*53
1508519117.57,47527,18.13,74010.0,-0.03,-33.09,-34.83,0,*55
1508519118.81,47528,18.13,74010.5,-0.03,-33.09,-34.83,0,*5A
1508519120.04,47529,18.13,74008.5,-0.03,-33.27,-35.01,0,*5C
1508519121.24,47530,18.13,74014.3,-0.03,-33.37,-35.01,0,*55
1508519122.46,47531,18.13,74010.8,-0.01,-33.37,-35.01,0,*56
1508519123.68,47532,18.13,74010.8,-0.03,-33.43,-35.17,0,*53
1508519124.9,47533,18.13,74014.3,-0.03,-33.27,-35.01,0,*57
1508519126.13,47534,18.13,74014.3,-0.05,-33.37,-35.01,0,*57
1508519127.37,47535,18.13,74010.3,-0.05,-33.27,-35.01,0,*57
1508519128.62,47536,18.13,74010.3,-0.05,-33.43,-35.01,0,*56
1508519129.84,47537,18.13,74010.0,-0.05,-33.55,-35.01,0,*50
1508519131.08,47538,18.13,74012.3,-0.05,-33.27,-34.89,0,*5B
1508519132.33,47539,18.13,74010.3,-0.05,-33.21,-34.83,0,*56
1508519133.58,47540,18.13,74012.5,-0.03,-33.09,-34.65,0,*5C
1508519134.77,47541,18.13,74010.8,-0.03,-33.21,-34.89,0,*55
1508519135.96,47542,18.13,74010.0,-0.03,-33.21,-35.01,0,*57
1508519137.15,47543,18.13,74008.8,-0.03,-33.21,-34.89,0,*57
1508519138.37,47544,18.13,74014.8,-0.03,-33.09,-34.71,0,*5D
1508519139.57,47545,18.13,74012.3,-0.03,-33.37,-35.01,0,*57
1508519140.85,47546,18.13,74012.5,-0.01,-33.31,-34.95,0,*5C
1508519142.08,47547,18.13,74010.8,-0.03,-33.61,-35.23,0,*56
1508519143.31,47548,18.13,74012.0,-0.03,-33.73,-35.17,0,*5D
1508519144.58,47549,18.13,74008.8,-0.05,-33.73,-35.23,0,*5D
1508519145.83,47550,18.13,74010.8,-0.05,-33.73,-35.17,0,*52
1508519147.04,47551,18.13,74012.5,-0.03,-33.61,-35.17,0,*56
1508519148.26,47552,18.13,74014.8,-0.07,-33.61,-35.13,0,*55
1508519149.5,47553,18.13,74012.5,-0.05,-33.61,-34.89,0,*54
1508519150.72,47554,18.13,74012.8,-0.05,-33.55,-35.01,0,*55
1508519151.96,47555,18.13,74012.8,-0.05,-33.43,-34.89,0,*52
1508519153.21,47556,18.13,74014.8,-0.05,-33.43,-35.01,0,*50
1508519154.46,47557,18.13,74010.3,-0.07,-33.49,-34.95,0,*55
1508519155.71,47558,18.13,74012.8,-0.07,-33.49,-35.07,0,*50
1508519156.95,47559,18.13,74012.0,-0.07,-33.61,-34.95,0,*51
1508519158.17,47560,18.13,74012.0,-0.07,-33.67,-35.07,0,*57
1508519159.4,47561,18.13,74010.0,-0.07,-33.31,-34.77,0,*53
1508519160.62,47562,18.13,74014.0,-0.07,-33.43,-34.77,0,*55
1508519161.86,47563,18.13,74010.3,-0.07,-33.61,-35.07,0,*52
1508519163.08,47564,18.13,74014.8,-0.07,-33.61,-35.13,0,*50
1508519164.32,47565,18.13,74010.8,-0.07,-33.43,-34.95,0,*5E
1508519165.58,47566,18.13,74010.3,-0.07,-33.49,-34.95,0,*57
1508519166.8,47567,18.13,74008.8,-0.07,-33.31,-34.77,0,*55
1508519168.04,47568,18.13,74010.0,-0.05,-33.27,-34.89,0,*5E
1508519169.26,47569,18.13,74008.5,-0.07,-33.27,-34.71,0,*5A
1508519170.48,47570,18.13,74010.8,-0.07,-33.27,-34.71,0,*52
1508519171.72,47571,18.13,74010.8,-0.05,-33.21,-34.53,0,*57
1508519172.99,47572,18.13,74008.8,-0.05,-33.31,-34.83,0,*58
1508519174.24,47573,18.13,74008.0,-0.07,-33.31,-34.95,0,*5C
1508519175.48,47574,18.13,74014.8,-0.07,-33.31,-35.07,0,*51
1508519176.7,47575,18.13,74010.5,-0.07,-33.31,-34.89,0,*57
1508519177.92,47576,18.13,74012.0,-0.07,-33.27,-34.77,0,*52
1508519179.14,47577,18.13,74008.5,-0.07,-33.27,-34.89,0,*52
1508519180.35,47578,18.13,74012.5,-0.07,-33.27,-34.89,0,*5D
1508519181.6,47579,18.13,74006.8,-0.09,-33.21,-34.83,0,*5E
1508519182.85,47580,18.13,74010.0,-0.09,-33.21,-34.95,0,*5F
1508519184.13,47581,18.13,74012.8,-0.09,-33.31,-34.95,0,*5F
1508519185.38,47582,18.13,74008.0,-0.09,-33.49,-35.13,0,*5C
1508519186.61,47583,18.13,74012.5,-0.09,-33.67,-35.29,0,*58
1508519187.86,47584,18.13,74012.3,-0.09,-33.73,-35.17,0,*57
1508519189.09,47585,18.13,74010.8,-0.09,-33.83,-35.47,0,*5C
1508519190.32,47586,18.13,74012.3,-0.11,-33.83,-35.35,0,*63
1508519191.57,47587,18.13,74008.5,-0.11,-33.73,-35.35,0,*6D
1508519192.82,47588,18.13,74010.5,-0.09,-33.83,-35.35,0,*54
1508519194.07,47589,18.13,74008.0,-0.09,-33.67,-35.35,0,*5F
1508519195.32,47590,18.13,74008.5,-0.09,-33.31,-35.01,0,*53
1508519196.57,47591,18.13,74008.3,-0.11,-33.31,-34.83,0,*60
1508519197.82,47592,18.13,74008.0,-0.11,-33.31,-34.95,0,*64
1508519199.05,47593,18.13,74010.5,-0.11,-33.31,-35.01,0,*69
1508519200.25,47594,18.13,74008.8,-0.11,-33.37,-35.13,0,*6B
1508519201.48,47595,18.13,74010.5,-0.11,-33.49,-35.13,0,*63
1508519202.72,47596,18.13,74008.8,-0.09,-33.67,-35.29,0,*5C
1508519203.97,47597,18.13,74008.0,-0.11,-33.73,-35.35,0,*6C
1508519205.17,47598,18.13,74010.0,-0.11,-33.37,-35.13,0,*67
1508519206.37,47599,18.13,74006.3,-0.11,-33.55,-35.13,0,*62
1508519207.6,47600,18.13,74010.0,-0.09,-33.67,-35.29,0,*50
1508519208.81,47601,18.13,74006.8,-0.11,-33.83,-35.47,0,*6A
1508519210.06,47602,18.13,74010.3,-0.11,-33.73,-35.35,0,*63
1508519211.27,47603,18.13,74008.5,-0.11,-33.67,-35.29,0,*6A
1508519212.47,47604,18.13,74006.3,-0.11,-33.37,-35.17,0,*65
1508519213.67,47605,18.13,74008.0,-0.11,-33.67,-35.17,0,*61
1508519214.95,47606,18.13,74010.3,-0.13,-33.89,-35.53,0,*60
1508519216.2,47607,18.13,74014.5,-0.13,-33.55,-35.23,0,*67
1508519217.42,47608,18.13,74010.5,-0.13,-33.95,-35.59,0,*69
1508519218.7,47609,18.13,74008.8,-0.13,-33.77,-35.41,0,*6D
1508519219.98,47610,18.13,74012.0,-0.13,-33.61,-35.23,0,*66
1508519221.25,47611,18.13,74010.5,-0.13,-33.89,-35.41,0,*65
1508519222.5,47612,18.13,74008.8,-0.15,-33.89,-35.41,0,*60
1508519223.73,47613,18.13,74010.3,-0.15,-33.95,-35.53,0,*6F
1508519224.98,47614,18.13,74006.3,-0.15,-33.89,-35.53,0,*65
1508519226.23,47615,18.13,74014.3,-0.15,-33.89,-35.53,0,*64
1508519227.48,47616,18.13,74010.5,-0.15,-33.89,-35.53,0,*67
1508519228.74,47617,18.13,74012.0,-0.15,-33.73,-35.41,0,*60
1508519230.02,47618,18.13,74014.8,-0.13,-33.77,-35.23,0,*69
1508519231.24,47619,18.13,74010.8,-0.15,-33.55,-35.23,0,*6E
1508519232.5,47620,18.13,74012.5,-0.15,-33.73,-35.35,0,*67
1508519233.75,47621,18.13,74010.3,-0.15,-33.73,-35.35,0,*66
1508519235.01,47622,18.13,74010.3,-0.17,-33.67,-35.41,0,*61
1508519236.22,47623,18.13,74010.5,-0.21,-33.67,-35.29,0,*6B
1508519237.48,47624,18.13,74014.5,-0.17,-33.67,-35.41,0,*67
1508519238.76,47625,18.13,74012.5,-0.17,-33.77,-35.41,0,*67
1508519240.0,47626,18.13,74008.0,-0.17,-33.67,-35.29,0,*6B
1508519241.23,47627,18.13,74014.5,-0.21,-33.49,-35.13,0,*6A
1508519242.47,47628,18.13,74012.5,-0.21,-33.61,-35.23,0,*6C
1508519243.75,47629,18.13,74010.8,-0.17,-33.61,-35.23,0,*68
1508519245.0,47630,18.13,74012.0,-0.17,-33.95,-35.41,0,*6F
1508519246.24,47631,18.13,74014.8,-0.17,-33.67,-35.29,0,*6D
1508519247.48,47632,18.13,74014.8,-0.17,-33.67,-35.29,0,*6E
1508519248.71,47633,18.13,74016.3,-0.21,-33.61,-35.29,0,*6C
1508519249.95,47634,18.13,74012.3,-0.17,-33.67,-35.29,0,*68
1508519251.23,47635,18.13,74012.5,-0.17,-33.77,-35.41,0,*66
1508519252.49,47636,18.13,74012.8,-0.17,-33.61,-35.29,0,*6C
1508519253.75,47637,18.13,74014.5,-0.17,-33.61,-35.29,0,*6D
1508519254.95,47638,18.13,74018.3,-0.21,-33.67,-35.29,0,*61
1508519256.24,47639,18.13,74012.8,-0.17,-33.49,-35.23,0,*63
1508519257.48,47640,18.13,74016.8,-0.21,-33.27,-34.95,0,*6C
1508519258.71,47641,18.13,74016.0,-0.17,-32.91,-34.59,0,*64
1508519259.94,47642,18.13,74014.8,-0.17,-33.21,-34.77,0,*61
1508519261.19,47643,18.13,74016.5,-0.21,-33.43,-35.23,0,*61
1508519262.47,47644,18.13,74014.0,-0.17,-33.49,-35.23,0,*69
1508519263.72,47645,18.13,74016.0,-0.21,-33.31,-35.07,0,*64
1508519264.91,47646,18.13,74014.5,-0.21,-32.91,-34.59,0,*66
1508519266.17,47647,18.13,74012.5,-0.17,-32.69,-34.35,0,*6F
1508519267.42,47648,18.13,74016.8,-0.15,-32.97,-34.53,0,*63
1508519268.67,47649,18.13,74014.0,-0.17,-33.09,-34.89,0,*61
1508519269.95,47650,18.13,74016.5,-0.17,-33.43,-35.23,0,*66
1508519271.21,47651,18.13,74014.8,-0.17,-33.43,-35.13,0,*64
1508519272.43,47652,18.13,74010.5,-0.15,-33.27,-34.89,0,*65
1508519273.63,47653,18.13,74012.3,-0.15,-33.21,-34.71,0,*65
1508519274.86,47654,18.13,74012.5,-0.15,-33.21,-34.83,0,*6F
1508519276.05,47655,18.13,74014.0,-0.15,-33.55,-35.17,0,*61
1508519277.25,47656,18.13,74008.3,-0.15,-33.55,-35.17,0,*62
1508519278.5,47657,18.13,74006.0,-0.15,-33.43,-35.07,0,*65
1508519279.71,47658,18.13,74008.5,-0.15,-33.55,-35.01,0,*6B
1508519280.94,47659,18.13,74006.8,-0.15,-33.73,-35.17,0,*69
1508519282.2,47660,18.13,74006.0,-0.17,-33.67,-35.41,0,*67
1508519283.48,47661,18.13,74004.8,-0.17,-33.31,-34.95,0,*6D
1508519284.74,47662,18.13,74002.5,-0.17,-33.09,-34.71,0,*6F
1508519286.03,47663,18.13,74006.5,-0.17,-33.43,-34.95,0,*6A
1508519287.28,47664,18.13,74004.3,-0.17,-33.61,-35.13,0,*62
1508519288.51,47665,18.13,74006.0,-0.15,-33.43,-35.01,0,*62
1508519289.74,47666,18.13,74004.3,-0.15,-33.21,-34.65,0,*66
1508519290.96,47667,18.13,74006.3,-0.15,-33.15,-34.35,0,*65
1508519292.19,47668,18.13,74008.8,-0.13,-33.37,-34.71,0,*6C
1508519293.39,47669,18.13,74006.3,-0.15,-33.21,-34.71,0,*6C